Hourly Data Report for October 01, 2014

All times are specified in Local Standard Time (LST). Add 1 hour to adjust for Daylight Saving Time where and when it is observed.

CHARLOTTETOWN A
PRINCE EDWARD ISLAND

46°17'21.000" N
63°07'09.000" W
48.50 m
8300301
71706
YYG

Download Data

Hourly Data (October 2014)
Hourly Data Report for October 1, 2014
Temp Definition
°C
Dew Point Temp Definition
°C
Rel Hum Definition
%
Wind Dir Definition
10's deg

Wind Spd Definition
km/h
Visibility Definition
km
Stn Press Definition
kPa
Hmdx Definition


Wind Chill Definition


Weather Definition


TIME
00:00 Legend Double Dagger 12.6 12.0 96 1 16 19.3 101.30     LegendNANA
01:00 Legend Double Dagger 11.9 11.6 98 3 12 9.7 101.32     Drizzle,Fog
02:00 Legend Double Dagger 11.9 11.4 97 3 14 9.7 101.31     Drizzle,Fog
03:00 Legend Double Dagger 11.7 11.1 96 2 16 16.1 101.33     Drizzle
04:00 Legend Double Dagger 11.6 10.7 94 3 17 19.3 101.37     LegendNANA
05:00 Legend Double Dagger 11.5 10.3 92 2 17 24.1 101.44     Cloudy
06:00 Legend Double Dagger 11.1 9.5 90 3 15 24.1 101.48     LegendNANA
07:00 Legend Double Dagger 11.0 8.9 87 3 18 24.1 101.55     LegendNANA
08:00 Legend Double Dagger 11.1 8.4 83 3 21 24.1 101.60     Cloudy
09:00 Legend Double Dagger 11.3 8.0 80 3 23 24.1 101.66     LegendNANA
10:00 Legend Double Dagger 11.7 8.2 79 4 19 24.1 101.68     LegendNANA
11:00 Legend Double Dagger 12.0 8.5 79 2 22 24.1 101.68     Cloudy
12:00 Legend Double Dagger 12.2 8.3 77 2 22 24.1 101.68     LegendNANA
13:00 Legend Double Dagger 12.1 8.4 78 5 22 24.1 101.65     LegendNANA
14:00 Legend Double Dagger 11.9 7.8 76 3 23 24.1 101.62     Mostly Cloudy
15:00 Legend Double Dagger 11.6 7.0 73 4 19 24.1 101.65     LegendNANA
16:00 Legend Double Dagger 11.0 6.8 75 5 16 24.1 101.68     LegendNANA
17:00 Legend Double Dagger 10.2 6.2 76 2 21 24.1 101.67     Mainly Clear
18:00 Legend Double Dagger 7.4 5.4 87 2 11 24.1 101.74     LegendNANA
19:00 Legend Double Dagger 6.7 5.7 93 2 7 24.1 101.78     LegendNANA
20:00 Legend Double Dagger 5.8 5.1 95 3 10 24.1 101.81     Mainly Clear
21:00 Legend Double Dagger 6.7 6.1 96 1 7 24.1 101.83     LegendNANA
22:00 Legend Double Dagger 5.1 4.5 96 4 7 24.1 101.84     LegendNANA
23:00 Legend Double Dagger 5.6 4.9 95 3 12 24.1 101.81     Mainly Clear

Notes on Data Quality.

Legend

  • E = Estimated
  • M = Missing
  • NA = Not Available
  • ‡ = Partner data that is not subject to review by the National Climate Archives
Date modified: